SCP
1 2 2 2 2 1 1 1 1 1 1 1 1 1 1 1 1 1 2 2 2 2 1 1 1 1 1 1 1 1 1 1 1 1 1 1 0 0 0 0 0 0 0
2 2 2 2 2 1 1 1 1 1 1 1 1 1 1 1 1 1 2 2 2 2 1 1 1 1 1 1 1 1 1 1 1 1 1 1 0 0 0 0 0 0 0
3 3 3 2 2 2 2 2 1 1 1 1 1 1 1 1 1 1 1 2 2 2 2 2 1 1 1 1 1 1 1 1 1 1 1 1 1 0 0 0 0 0 0
3 3 3 3 3 3 3 2 2 1 1 1 1 1 1 1 1 1 2 2 2 1 1 2 2 2 1 1 1 1 1 1 1 1 1 1 1 0 0 0 0 0 0
4 4 4 4 4 4 3 3 2 2 1 1 1 1 1 1 2 2 2 2 2 2 2 2 2 2 1 1 1 1 1 1 1 1 1 1 1 0 0 0 0 0 0
5 5 5 4 4 4 4 3 3 2 1 1 1 1 1 1 2 2 2 2 2 2 2 2 2 2 1 1 1 1 1 1 1 1 1 1 1 1 0 0 0 0 0
6 5 5 5 5 5 4 4 3 2 2 1 1 1 1 1 2 2 2 1 1 1 2 1 1 1 1 1 1 1 1 1 1 1 1 1 1 1 0 0 0 0 0
6 5 5 5 5 5 5 5 4 3 2 2 1 1 1 1 1 2 2 1 1 1 1 1 1 1 1 1 1 1 1 1 1 1 1 1 1 1 0 0 0 0 0
5 5 5 5 5 5 5 5 4 3 2 2 2 1 1 1 1 1 1 1 2 2 1 1 1 1 1 1 1 1 1 1 1 1 1 1 1 1 0 0 0 0 0
5 5 5 5 5 5 5 4 3 3 2 2 1 1 1 1 1 1 1 1 2 2 2 1 1 2 2 1 1 1 1 1 0 0 1 1 1 0 0 0 0 0 0
5 5 5 5 6 5 4 3 2 2 2 1 1 1 1 1 1 1 1 1 1 2 2 2 2 2 2 1 1 1 0 0 0 0 1 1 1 1 0 0 0 0 0
5 5 4 5 5 5 4 3 2 2 2 2 2 2 1 1 2 2 1 1 1 1 2 2 2 2 2 1 1 0 0 0 0 0 0 0 0 0 0 0 0 0 0
5 4 4 4 4 3 3 2 2 2 2 2 2 1 1 1 2 2 1 1 1 1 1 2 2 2 2 1 1 0 0 0 0 0 0 0 0 0 0 0 0 0 0
5 4 3 3 3 2 2 2 2 2 1 1 1 1 1 1 2 1 1 1 1 1 1 1 2 2 2 2 1 0 0 0 0 0 0 0 0 0 0 0 0 0 0
3 3 2 2 2 2 1 2 2 1 1 1 1 1 1 1 1 1 1 1 1 1 1 1 1 2 2 1 1 0 0 0 0 0 0 0 0 0 0 0 0 0 0
2 2 1 1 1 1 1 1 1 1 1 1 1 1 1 1 1 1 1 1 1 1 1 1 1 2 2 1 1 0 0 0 0 0 0 0 0 0 0 0 0 0 0
1 1 1 1 1 1 1 1 1 1 1 1 1 1 1 1 1 1 1 1 1 1 1 1 1 1 1 1 1 0 0 0 0 0 0 0 0 0 0 0 0 0 0
1 1 1 1 1 0 0 0 0 0 1 1 1 1 1 1 1 1 1 1 1 1 1 1 1 1 1 1 1 1 0 0 0 0 0 0 0 0 0 0 0 0 0
1 1 1 0 0 0 0 0 0 0 0 0 0 1 1 1 1 1 1 1 1 1 1 1 1 1 1 1 1 1 0 0 0 0 0 0 0 0 0 0 0 0 0
0 0 0 0 0 0 0 0 0 0 0 0 0 0 0 0 0 0 0 1 1 1 1 1 1 1 1 1 1 1 0 0 0 0 0 0 0 0 0 0 0 0 0
0 0 0 0 0 0 0 0 0 0 0 0 0 0 0 0 0 0 0 0 1 1 1 1 1 1 1 1 1 1 1 1 1 1 1 1 1 0 0 0 0 0 0
0 0 0 0 0 0 0 0 0 0 0 0 0 0 0 0 0 0 0 0 0 1 1 1 1 1 1 1 1 1 1 1 1 1 1 1 1 1 0 0 0 0 0
0 0 0 0 0 0 0 0 0 0 0 0 0 0 0 0 0 0 0 0 0 0 0 1 1 1 1 1 1 1 1 1 0 1 1 1 1 1 0 0 0 0 0
0 0 0 0 0 0 0 0 0 0 0 0 0 0 0 0 0 0 0 0 0 0 0 0 0 1 1 1 1 1 1 1 1 0 0 0 0 0 0 0 0 0 0
0 0 0 0 0 0 0 0 0 0 0 0 0 0 0 0 0 0 0 0 0 0 0 0 0 0 0 0 0 1 1 1 0 0 0 0 0 0 0 0 0 0 0
0 0 0 0 0 0 0 0 0 0 0 0 0 0 0 0 0 0 0 0 0 0 0 0 0 0 0 0 0 0 0 0 0 0 0 0 0 0 0 0 0 0 0
Wind_Speed
2 1 1 0 2 2 3 3 3 4 4 5 5 5 5 5 5 4 2 10 12 12 13 13 13 14 15 15 15 16 17 19 20 20 21 20 19 18 17 16 14 13 11
2 1 1 1 3 2 1 2 4 3 4 4 5 4 4 5 5 5 4 7 13 14 14 14 14 14 14 15 15 15 16 18 19 21 22 21 20 19 19 18 16 15 13
3 3 2 2 2 2 2 3 4 3 4 4 5 5 5 5 5 4 4 3 5 13 16 15 15 14 14 14 15 16 16 16 17 20 22 23 21 20 20 19 18 16 14
4 3 2 2 2 2 2 2 3 3 3 4 4 5 4 4 6 5 5 5 4 3 8 15 15 13 14 15 15 16 16 15 15 18 21 24 23 22 21 20 19 17 15
4 3 2 2 2 2 2 4 1 2 3 4 5 6 5 5 5 7 6 5 4 3 4 7 14 14 16 15 15 15 16 15 14 16 20 24 25 23 22 21 20 18 16
3 2 2 3 3 2 1 2 3 3 3 4 7 7 5 6 5 5 5 5 5 6 6 3 5 8 12 13 15 15 15 15 14 14 17 22 25 24 23 23 21 20 18
3 2 2 1 2 2 2 2 2 4 4 4 4 5 6 8 6 4 4 4 4 4 4 5 4 3 3 9 12 14 15 14 14 14 15 18 23 24 25 25 22 20 19
3 4 3 2 2 1 2 3 2 3 4 4 3 3 4 5 2 4 4 5 5 3 3 4 3 4 3 2 4 9 12 13 14 14 14 17 21 24 26 26 24 21 19
4 3 3 2 2 2 2 3 3 5 5 4 3 3 3 3 3 4 4 4 4 3 3 3 3 2 1 1 3 3 7 9 11 13 14 16 20 24 27 28 26 23 21
4 4 3 3 3 2 3 3 4 4 5 5 4 4 5 4 3 4 3 3 4 5 4 3 2 1 2 2 3 4 5 6 8 10 12 15 21 25 28 28 28 25 22
4 4 4 3 3 2 3 4 4 4 4 5 5 4 5 4 5 4 5 4 3 3 4 4 2 1 2 3 3 5 6 5 4 5 9 14 21 27 28 29 28 25 22
3 4 4 3 3 3 4 4 4 5 5 6 5 5 5 4 4 4 5 5 5 4 3 2 2 2 3 4 5 6 6 5 4 4 9 16 22 27 28 28 26 24 23
2 3 3 3 3 3 4 3 4 4 5 6 6 5 5 5 5 5 5 6 5 4 3 1 2 3 4 4 4 5 7 8 9 11 15 20 23 26 26 26 25 24 22
1 2 2 3 4 4 3 3 3 4 5 5 7 6 5 5 5 4 5 5 5 4 3 3 1 4 4 5 5 5 5 8 11 13 16 19 21 21 21 21 21 20 18
2 3 3 3 3 3 3 3 3 4 4 4 5 6 5 4 4 4 4 4 4 4 4 3 2 4 5 6 6 4 5 7 9 11 13 15 16 17 16 16 15 14 13
3 3 3 4 4 4 3 3 3 4 4 4 4 5 5 4 4 4 4 4 4 5 4 3 3 4 5 7 7 6 7 10 9 10 11 12 13 14 13 13 13 12 11
3 3 3 3 4 4 3 3 4 5 5 4 4 5 5 5 4 4 4 4 4 5 6 5 2 3 4 6 5 5 7 7 7 11 12 12 13 13 13 13 13 12 12
3 4 4 4 4 4 4 4 5 5 5 5 5 5 6 6 6 5 4 5 5 5 5 6 3 3 4 6 6 5 6 8 7 13 15 15 15 15 15 15 14 13 13
3 4 4 5 5 5 5 6 6 5 5 5 5 5 5 6 7 6 6 5 5 5 4 5 4 3 3 5 6 5 5 4 6 10 16 16 16 15 15 15 14 14 13
3 4 4 4 4 5 7 8 8 5 4 4 4 4 5 5 6 8 6 6 6 5 4 4 3 3 3 5 5 5 4 3 3 3 7 11 13 15 14 14 13 13 13
4 4 4 4 5 5 7 8 8 6 5 5 4 3 3 3 3 5 5 6 7 5 4 2 2 2 3 4 5 4 4 3 2 1 1 4 5 7 9 11 12 12 12
3 3 3 4 6 6 7 9 8 6 5 5 5 4 2 4 6 5 4 4 6 6 5 4 2 0 1 2 3 4 4 3 2 1 1 1 2 3 3 3 5 7 8
3 4 4 4 5 5 7 10 12 7 4 5 5 6 6 7 8 8 6 3 5 9 8 5 5 4 3 2 1 3 3 3 3 2 1 1 1 2 3 4 5 4 3
4 4 4 5 4 5 8 10 13 5 3 5 6 6 5 6 9 9 4 4 5 6 7 6 5 5 4 4 3 1 3 3 3 2 2 2 1 2 3 2 2 3 2
4 4 4 5 5 5 9 10 11 5 1 3 5 6 6 6 11 13 7 5 4 2 4 6 5 3 4 5 4 2 2 2 2 1 1 1 1 2 3 2 0 1 1
3 3 5 5 6 6 9 12 13 5 3 2 3 5 9 9 11 13 7 6 6 6 6 1 1 1 1 2 4 4 2 1 1 1 1 1 1 2 2 2 1 2 2
Wind_Direction
185 71 10 341 257 216 207 240 263 270 272 277 265 255 239 242 249 258 190 189 202 213 226 238 246 252 257 259 256 250 244 236 226 218 214 214 212 206 200 196 194 189 184
142 148 201 254 288 291 208 220 253 260 264 266 267 265 256 259 243 239 237 208 216 221 227 235 242 248 255 262 264 260 252 243 232 221 215 213 212 208 200 196 192 187 183
172 175 205 219 250 270 256 248 273 267 267 273 265 254 245 244 250 246 252 241 226 224 226 232 237 243 251 259 265 266 262 252 238 225 216 211 209 205 199 195 190 185 181
185 189 215 228 227 249 243 239 248 273 281 284 279 269 254 232 232 236 238 238 235 242 222 227 231 237 246 255 262 266 265 260 246 231 219 211 207 203 196 192 186 182 178
197 190 221 250 263 263 264 276 259 250 279 282 281 261 248 244 225 228 225 231 228 228 240 225 217 231 243 253 260 264 265 262 252 236 223 213 206 200 191 187 181 177 177
210 204 214 239 253 274 270 284 310 286 279 285 288 296 284 260 231 222 221 230 213 215 231 231 202 232 240 246 252 257 260 260 254 243 228 215 206 196 187 181 176 174 177
217 221 251 273 268 276 283 280 285 289 279 268 276 288 284 267 230 201 210 233 232 215 222 223 214 233 242 247 249 252 254 255 252 246 230 215 203 192 182 176 171 172 177
221 229 210 229 242 262 284 286 286 276 277 273 268 290 294 303 303 236 208 203 221 222 247 250 206 214 240 262 263 254 252 254 252 245 230 212 198 186 177 171 168 170 176
215 219 225 231 241 242 249 257 259 261 266 272 249 243 270 287 316 281 232 219 193 205 246 259 248 208 253 306 309 284 269 260 256 246 229 206 190 178 171 167 166 170 178
219 222 231 235 243 251 257 258 256 254 259 268 272 243 237 249 267 301 295 251 203 213 230 252 278 354 39 15 355 3 321 284 261 243 223 200 181 170 167 165 165 172 181
218 227 226 235 243 253 263 267 275 269 261 259 261 263 258 249 236 243 275 294 283 248 218 214 200 121 71 43 25 18 347 325 285 233 204 183 171 165 163 163 167 174 182
218 227 232 238 248 252 253 255 262 266 264 264 266 265 259 254 248 241 258 273 276 269 231 181 168 132 101 71 51 37 32 34 52 121 149 153 155 157 158 164 169 177 185
250 250 251 252 257 260 263 262 266 268 269 268 264 263 262 261 264 263 263 273 282 283 271 221 165 134 115 103 89 76 61 67 78 98 120 134 145 152 160 166 173 183 189
324 311 285 279 279 280 284 284 273 269 268 268 272 271 268 268 268 268 266 276 285 279 262 247 168 138 122 114 118 110 88 88 94 104 119 131 141 151 161 171 181 188 193
20 21 345 330 319 314 311 312 299 290 283 279 284 288 281 277 277 274 269 257 252 268 266 234 201 151 132 123 151 131 123 120 118 121 130 140 149 160 172 182 188 195 201
33 12 360 343 328 317 313 315 308 300 300 290 281 284 291 289 293 290 280 272 250 243 257 245 214 164 150 147 164 147 140 147 149 150 153 159 166 173 181 190 199 208 212
358 7 350 335 321 314 331 327 305 297 300 305 311 315 316 312 308 302 294 281 265 247 249 254 224 159 142 141 154 161 150 164 175 181 179 178 181 187 194 202 211 217 220
1 3 351 348 341 358 352 337 328 337 333 334 341 344 340 336 336 321 305 288 275 257 244 251 227 173 163 156 158 181 172 187 186 192 195 196 197 199 202 208 214 220 225
18 8 5 3 1 3 5 357 346 342 347 353 357 356 354 353 347 336 320 311 295 280 252 242 234 190 172 172 168 194 212 209 209 195 199 204 207 207 208 212 216 222 227
20 14 7 7 11 32 21 5 348 344 3 7 11 13 21 13 357 339 335 339 323 307 285 254 235 193 174 176 175 186 207 218 229 215 197 203 208 212 216 218 221 224 227
21 21 6 21 24 53 27 5 343 357 15 13 15 24 44 19 359 348 355 346 342 336 328 298 254 203 180 173 189 182 186 192 239 199 187 196 189 204 214 222 224 226 229
25 11 12 43 44 40 12 6 1 347 8 16 10 360 45 35 359 339 329 354 8 5 351 346 333 324 176 183 181 172 167 170 207 168 138 242 176 175 166 158 183 203 219
31 19 15 45 77 52 8 1 358 339 9 23 19 10 21 28 14 349 337 348 21 21 19 18 34 25 30 16 154 162 173 179 175 145 129 227 188 114 94 98 127 149 175
28 24 22 33 69 56 14 2 347 330 35 48 39 19 27 26 8 348 350 47 53 32 26 39 41 33 30 14 25 100 149 140 113 110 144 184 176 132 114 112 126 127 130
34 25 32 38 56 50 20 9 356 320 60 83 76 47 30 25 4 1 11 27 41 52 64 72 66 59 48 39 26 62 106 139 148 141 133 162 152 132 124 116 142 217 198
43 33 44 42 48 44 25 17 2 345 5 43 114 97 54 28 11 11 12 18 12 353 343 317 165 224 194 75 47 36 44 85 137 149 161 154 134 124 135 128 188 217 225